Weather in Urakovo

Russia / Belgorod Oblast     50°51′49″N   38°34′32″E
temp.,
°C
wind,
m/s
gust,
m/s
humid.,
%
clouds,
%
prec.,
mm/h
press.,
hPa
HPBL,
m
15 may, sat
sat1500:00+17s41191100 0.0 1010220
03:00+15sw229357 0.0 101120
06:00+15ssw2484100 0.0 101170
09:00+18ssw4672100 0.0 1013318
12:00+22sw45545 0.0 1013973
15:00+23ssw575345 0.0 10131776
18:00+22sw35655 0.0 1013244
21:00+17wsw11760 0.1 101311
16 may, sun
sun1600:00+15ssw11775 0.0 101411
03:00+14sse00785 0.0 101411
06:00+15e2280100 0.0 101415
09:00+20e236782 0.0 1015379
12:00+24ese235456 0.0 10141384
15:00+25ene3451100 0.0 10131653
18:00+24ne366744 0.0 1011254
21:00+19ene368452 0.2 1011101
17 may, mon
mon1700:00+16e347451 0.0 101157
03:00+15ene4127494 0.0 1010199
06:00+15e312755 0.0 1010235
09:00+22ese615575 0.0 1009632
12:00+25ese8155057 0.0 10081493
15:00+26se71452100 0.0 10081891
18:00+24se5106250 0.0 1008424
21:00+19se347684 0.0 100861
18 may, tue
tue1800:00+17se348057 0.0 100855
03:00+16s34895 0.0 100867
06:00+16s249020 0.0 1008157
09:00+19s357199 0.0 1008592
12:00+21ssw5664100 0.0 10081189
15:00+21s57677 0.0 10081076
18:00+20s58765 0.4 10081002
21:00+16sse4118833 0.4 1008262
19 may, wed
wed1900:00+15s51384100 0.0 1008451
03:00+15s4990100 0.0 1009332
06:00+14s489695 0.3 1010375
09:00+14ssw468978 0.9 1011510
12:00+19sw676015 0.9 10111574
15:00+20sw5651100 0.9 10112070
18:00+19sw3564100 0.0 1011232
21:00+14s3575100 0.4 101283